FENGYUN 1C DEB

Satellite information

Favourite Embed

Satellite Type and Status

DEBRISIN ORBIT

Key statistics

Satellite FENGYUN 1C DEB at a glance.

Uptime

9615

Days in orbit

Revolutions

≈ 14.2

Per day

Orbit

SSO

Sun Synchronous Orbit

Inclination

99.3

Latest

Satellite identification and parameters

Extended collection of information and parameters for FENGYUN 1C DEB.

Object identification

Identified? True

Debris? True

Object name: FENGYUN 1C DEB

International designator: 1999-025BYC

Object number (NORAD): 31537

Object ID (CCSDS): 31537

Country: PEOPLES REPUBLIC OF CHINA (PRC)

Current information (Y/N): Y

RCS size: SMALL

Orbital parameters

Period: 101.645 minutes

Inclination: 99.2901 deg

SMA: 7214.705 km

Apoapsis: 1097.207 km

Periapsis: 575.932 km

RAAN: 30.6212 deg

Eccentricy: 0.03612587

Argument of periapsis: 258.8831 deg

Mean anomaly: 97.1529 deg

Mean motion: 14.16690237 rev/day

Mean motion (dot): 0.00009035 rev/day2

B* drag term: 0.0023912425 1/REarth

Two-line elements (TLE)

Creation date: Aug. 31, 2025, 2:26 a.m.

Reference frame: TEME

Reference center: EARTH

Epoch: Aug. 30, 2025, 4:35 p.m. UTC

TLE line 0: 0 FENGYUN 1C DEB

TLE line 1: 1 31537U 99025BYC 25242.69137949 .00009035 00000-0 23912-2 0 9993

TLE line 2: 2 31537 99.2901 30.6212 0361259 258.8831 97.1529 14.16690237918062

Live tracking on map

Real-time ground track for satellite FENGYUN 1C DEB.

In-orbit conjunctions

A list of the most updated potential collisions computed for object FENGYUN 1C DEB.

Target Orbit TCA Probability of collision Miss distance Type
COSMOS 2251 DEB LEO 2025-07-30 09:49:30 0.000234343 162.0 (m) DEBRIS
DELTA 1 R/B SSO 2024-07-07 07:10:22 0.0002091142 261.0 (m) ROCKET BODY

Associated space launch

Chinese polar orbiting meteorological satellite

FENGYUN 1C DEB was lifted into orbit during the mission ‘Long March 4B | Feng Yun 1C’, on board a Long March 4B space rocket.

The launch took place on May 10, 1999, 1:33 a.m. from Launch Complex 7.

For more information about the launch, click the button.

Launch to space Long March 4B | Feng Yun 1C
Long March 4B | Feng Yun 1C

Agency: N/A

Status: Launch Successful

Launch date: May 10, 1999, 1:33 a.m. UTC

Rocket: Long March 4B

Launch pad: Launch Complex 7

Location: Taiyuan Satellite Launch Center, People's Republic of China

...

Latest news about this satellite

There are no fresh news available about this satellite. Check back as we update our databases every day.


Newsletter sign-up

Weekly statistics, charts and insights to help you stay on top of the space industry.